Time,TemperatureF,DewpointF,PressureIn,WindDirection,WindDirectionDegrees,WindSpeedMPH,WindSpeedGustMPH,Humidity,HourlyPrecipIn,Conditions,Clouds,dailyrainin,SoftwareType,DateUTC
2013-02-25 00:00:00,33.3,31.2,29.78,ENE,68,2.0,3.5,92,0.01,CLR,,1.11,WeatherDisplay:10.37,2013-02-25 05:00:00,
2013-02-25 00:05:00,33.4,31.4,29.78,SE,135,1.4,2.3,92,0.01,RA,,0.00,WeatherDisplay:10.37,2013-02-25 05:05:00,
2013-02-25 00:10:00,33.4,31.4,29.78,North,0,4.5,4.6,92,0.01,RA,,0.00,WeatherDisplay:10.37,2013-02-25 05:10:00,
2013-02-25 00:15:00,33.4,31.4,29.78,NW,315,2.2,3.5,92,0.01,CLR,,0.00,WeatherDisplay:10.37,2013-02-25 05:15:00,
2013-02-25 00:20:00,33.4,31.4,29.79,NNW,338,5.6,5.6,92,0.01,CLR,,0.00,WeatherDisplay:10.37,2013-02-25 05:20:00,
2013-02-25 00:25:00,33.4,31.4,29.79,NNW,338,1.4,2.3,92,0.01,CLR,,0.00,WeatherDisplay:10.37,2013-02-25 05:25:00,
2013-02-25 00:30:00,33.4,31.4,29.79,NW,315,0.0,5.8,92,0.02,RA,,0.01,WeatherDisplay:10.37,2013-02-25 05:30:00,
2013-02-25 00:35:00,33.4,31.4,29.80,NNW,338,3.6,5.8,92,0.02,RA,,0.01,WeatherDisplay:10.37,2013-02-25 05:35:00,
2013-02-25 00:40:00,33.3,31.2,29.80,NW,315,3.1,4.6,92,0.02,CLR,,0.01,WeatherDisplay:10.37,2013-02-25 05:40:00,
2013-02-25 00:45:00,33.3,31.2,29.80,WSW,248,5.9,5.9,92,0.02,CLR,,0.01,WeatherDisplay:10.37,2013-02-25 05:45:00,
2013-02-25 00:50:00,33.3,31.2,29.80,WSW,248,3.6,6.9,92,0.01,CLR,,0.01,WeatherDisplay:10.37,2013-02-25 05:50:00,
2013-02-25 00:55:00,33.3,31.2,29.80,North,0,1.8,4.6,92,0.01,CLR,,0.01,WeatherDisplay:10.37,2013-02-25 05:55:00,
2013-02-25 01:00:00,33.3,31.2,29.80,North,0,2.0,4.6,92,0.01,CLR,,0.01,WeatherDisplay:10.37,2013-02-25 06:00:00,
2013-02-25 01:05:00,33.1,31.0,29.80,North,0,2.0,8.1,92,0.01,CLR,,0.01,WeatherDisplay:10.37,2013-02-25 06:05:00,
2013-02-25 01:10:00,33.3,31.2,29.80,North,0,5.4,5.8,92,0.01,CLR,,0.01,WeatherDisplay:10.37,2013-02-25 06:10:00,
2013-02-25 01:15:00,33.1,31.0,29.81,NNW,338,1.1,7.4,92,0.01,CLR,,0.01,WeatherDisplay:10.37,2013-02-25 06:15:00,
2013-02-25 01:20:00,33.1,31.0,29.81,NW,315,4.0,4.0,92,0.01,CLR,,0.01,WeatherDisplay:10.37,2013-02-25 06:20:00,
2013-02-25 01:25:00,33.1,31.0,29.81,NW,315,3.3,3.5,92,0.01,CLR,,0.01,WeatherDisplay:10.37,2013-02-25 06:25:00,
2013-02-25 01:30:00,33.1,31.0,29.81,North,0,4.7,5.8,92,0.00,CLR,,0.01,WeatherDisplay:10.37,2013-02-25 06:30:00,
2013-02-25 01:35:00,33.3,31.2,29.81,NNW,338,5.2,5.8,92,0.00,CLR,,0.01,WeatherDisplay:10.37,2013-02-25 06:35:00,
2013-02-25 01:40:00,33.1,31.0,29.81,NNE,22,2.9,3.5,92,0.00,CLR,,0.01,WeatherDisplay:10.37,2013-02-25 06:40:00,
2013-02-25 01:45:00,33.3,31.2,29.81,WNW,292,1.4,2.4,92,0.00,CLR,,0.01,WeatherDisplay:10.37,2013-02-25 06:45:00,
2013-02-25 01:50:00,33.1,31.0,29.81,East,90,4.3,5.8,92,0.00,CLR,,0.01,WeatherDisplay:10.37,2013-02-25 06:50:00,
2013-02-25 01:55:00,33.3,31.2,29.81,North,0,0.9,5.8,92,0.00,CLR,,0.01,WeatherDisplay:10.37,2013-02-25 06:55:00,
2013-02-25 02:00:00,33.3,31.2,29.81,NW,315,3.3,3.5,92,0.00,CLR,,0.01,WeatherDisplay:10.37,2013-02-25 07:00:00,
2013-02-25 02:05:00,33.3,31.2,29.81,NNW,338,1.1,3.5,92,0.01,RA,,0.02,WeatherDisplay:10.37,2013-02-25 07:05:00,
2013-02-25 02:10:00,33.3,31.2,29.81,NW,315,4.0,4.6,92,0.01,RA,,0.02,WeatherDisplay:10.37,2013-02-25 07:10:00,
2013-02-25 02:15:00,33.3,31.2,29.81,North,0,0.0,0.0,92,0.01,CLR,,0.02,WeatherDisplay:10.37,2013-02-25 07:15:00,
2013-02-25 02:20:00,33.4,31.4,29.81,NW,315,4.5,4.6,92,0.01,CLR,,0.02,WeatherDisplay:10.37,2013-02-25 07:20:00,
2013-02-25 02:25:00,33.3,31.2,29.81,NNW,338,1.1,2.3,92,0.01,CLR,,0.02,WeatherDisplay:10.37,2013-02-25 07:25:00,
2013-02-25 02:30:00,33.4,31.4,29.81,North,0,0.7,1.1,92,0.01,CLR,,0.02,WeatherDisplay:10.37,2013-02-25 07:30:00,
2013-02-25 02:35:00,33.4,31.4,29.82,NNE,22,1.8,2.3,92,0.01,CLR,,0.02,WeatherDisplay:10.37,2013-02-25 07:35:00,
2013-02-25 02:40:00,33.4,31.4,29.82,NNW,338,0.7,1.1,92,0.01,CLR,,0.02,WeatherDisplay:10.37,2013-02-25 07:40:00,
2013-02-25 02:45:00,33.4,31.4,29.82,NNW,338,2.0,4.6,92,0.01,CLR,,0.02,WeatherDisplay:10.37,2013-02-25 07:45:00,
2013-02-25 02:50:00,33.4,31.4,29.82,NW,315,0.9,2.3,92,0.01,CLR,,0.02,WeatherDisplay:10.37,2013-02-25 07:50:00,
2013-02-25 02:55:00,33.4,31.4,29.82,NW,315,1.1,2.3,92,0.01,CLR,,0.02,WeatherDisplay:10.37,2013-02-25 07:55:00,
2013-02-25 03:00:00,33.4,31.4,29.82,NNW,338,0.9,1.1,92,0.01,CLR,,0.02,WeatherDisplay:10.37,2013-02-25 08:00:00,
2013-02-25 03:05:00,33.3,31.2,29.82,NW,315,0.2,1.1,92,0.00,CLR,,0.02,WeatherDisplay:10.37,2013-02-25 08:05:00,
2013-02-25 03:10:00,33.4,31.4,29.82,North,0,1.8,2.3,92,0.00,CLR,,0.02,WeatherDisplay:10.37,2013-02-25 08:10:00,
2013-02-25 03:15:00,33.4,31.4,29.82,NW,315,1.1,6.9,92,0.01,RA,,0.03,WeatherDisplay:10.37,2013-02-25 08:15:00,
2013-02-25 03:20:00,33.3,31.2,29.83,NW,315,0.5,3.5,92,0.01,RA,,0.03,WeatherDisplay:10.37,2013-02-25 08:20:00,
2013-02-25 03:25:00,33.3,31.2,29.83,NW,315,1.1,3.5,92,0.01,CLR,,0.03,WeatherDisplay:10.37,2013-02-25 08:25:00,
2013-02-25 03:30:00,33.1,31.0,29.83,West,270,6.2,6.2,92,0.01,CLR,,0.03,WeatherDisplay:10.37,2013-02-25 08:30:00,
2013-02-25 03:35:00,33.1,31.0,29.84,NNE,22,4.0,4.6,92,0.01,CLR,,0.03,WeatherDisplay:10.37,2013-02-25 08:35:00,
2013-02-25 03:40:00,32.9,30.8,29.84,NW,315,1.1,2.6,92,0.01,CLR,,0.03,WeatherDisplay:10.37,2013-02-25 08:40:00,
2013-02-25 03:45:00,32.9,30.8,29.85,North,0,1.1,3.5,92,0.01,CLR,,0.03,WeatherDisplay:10.37,2013-02-25 08:45:00,
2013-02-25 03:50:00,32.9,30.8,29.85,NW,315,4.3,4.3,92,0.01,CLR,,0.03,WeatherDisplay:10.37,2013-02-25 08:50:00,
2013-02-25 03:55:00,32.9,30.8,29.85,NW,315,2.4,2.4,92,0.01,CLR,,0.03,WeatherDisplay:10.37,2013-02-25 08:55:00,
2013-02-25 04:00:00,32.9,30.8,29.85,NNW,338,1.1,2.3,92,0.01,CLR,,0.03,WeatherDisplay:10.37,2013-02-25 09:00:00,
2013-02-25 04:05:00,32.9,30.8,29.86,West,270,1.4,4.6,92,0.01,CLR,,0.03,WeatherDisplay:10.37,2013-02-25 09:05:00,
2013-02-25 04:10:00,32.9,30.8,29.86,NNW,338,1.8,4.6,92,0.01,CLR,,0.03,WeatherDisplay:10.37,2013-02-25 09:10:00,
2013-02-25 04:15:00,32.9,30.8,29.87,NW,315,5.6,5.9,92,0.00,CLR,,0.03,WeatherDisplay:10.37,2013-02-25 09:15:00,
2013-02-25 04:20:00,32.9,30.8,29.87,North,0,1.8,3.5,92,0.00,CLR,,0.03,WeatherDisplay:10.37,2013-02-25 09:20:00,
2013-02-25 04:25:00,32.9,30.8,29.87,NNW,338,1.1,4.6,92,0.00,CLR,,0.03,WeatherDisplay:10.37,2013-02-25 09:25:00,
2013-02-25 04:30:00,32.9,30.8,29.87,North,0,4.5,4.6,92,0.00,CLR,,0.03,WeatherDisplay:10.37,2013-02-25 09:30:00,
2013-02-25 04:35:00,32.9,30.8,29.87,WNW,292,2.2,3.5,92,0.00,CLR,,0.03,WeatherDisplay:10.37,2013-02-25 09:35:00,
2013-02-25 04:40:00,32.7,30.7,29.87,NW,315,2.4,5.8,92,0.00,CLR,,0.03,WeatherDisplay:10.37,2013-02-25 09:40:00,
2013-02-25 04:45:00,32.9,30.8,29.87,SW,225,1.8,4.6,92,0.00,CLR,,0.03,WeatherDisplay:10.37,2013-02-25 09:45:00,
2013-02-25 04:50:00,32.7,30.7,29.88,North,0,3.3,4.6,92,0.00,CLR,,0.03,WeatherDisplay:10.37,2013-02-25 09:50:00,
2013-02-25 04:55:00,32.7,30.7,29.88,NW,315,4.5,4.6,92,0.00,CLR,,0.03,WeatherDisplay:10.37,2013-02-25 09:55:00,
2013-02-25 05:00:00,32.7,30.7,29.88,NW,315,3.1,3.5,92,0.00,CLR,,0.03,WeatherDisplay:10.37,2013-02-25 10:00:00,
2013-02-25 05:05:00,32.7,30.7,29.89,West,270,3.6,4.7,92,0.00,CLR,,0.03,WeatherDisplay:10.37,2013-02-25 10:05:00,
2013-02-25 05:10:00,32.7,30.4,29.89,NW,315,4.7,4.7,91,0.00,CLR,,0.03,WeatherDisplay:10.37,2013-02-25 10:10:00,
2013-02-25 05:15:00,32.7,30.4,29.89,NW,315,2.4,4.6,91,0.00,CLR,,0.03,WeatherDisplay:10.37,2013-02-25 10:15:00,
2013-02-25 05:20:00,32.7,30.4,29.89,West,270,1.1,2.3,91,0.00,CLR,,0.03,WeatherDisplay:10.37,2013-02-25 10:20:00,
2013-02-25 05:25:00,32.7,30.4,29.89,North,0,1.1,2.9,91,0.00,CLR,,0.03,WeatherDisplay:10.37,2013-02-25 10:25:00,
2013-02-25 05:30:00,32.7,30.4,29.90,NNW,338,2.4,8.1,91,0.00,CLR,,0.03,WeatherDisplay:10.37,2013-02-25 10:30:00,
2013-02-25 05:35:00,32.7,30.4,29.90,NNW,338,0.7,4.6,91,0.00,CLR,,0.03,WeatherDisplay:10.37,2013-02-25 10:35:00,
2013-02-25 05:40:00,32.7,30.4,29.90,NNW,338,2.9,8.1,91,0.00,CLR,,0.03,WeatherDisplay:10.37,2013-02-25 10:40:00,
2013-02-25 05:45:00,32.7,30.4,29.90,NNW,338,4.5,5.8,91,0.00,CLR,,0.03,WeatherDisplay:10.37,2013-02-25 10:45:00,
2013-02-25 05:50:00,32.7,30.1,29.90,NNW,338,2.6,4.6,90,0.00,CLR,,0.03,WeatherDisplay:10.37,2013-02-25 10:50:00,
2013-02-25 05:55:00,32.7,30.1,29.91,NNW,338,0.7,3.5,90,0.00,CLR,,0.03,WeatherDisplay:10.37,2013-02-25 10:55:00,
2013-02-25 06:00:00,32.7,30.1,29.91,NNW,338,2.9,3.5,90,0.00,CLR,,0.03,WeatherDisplay:10.37,2013-02-25 11:00:00,
2013-02-25 06:05:00,32.7,30.1,29.91,NNW,338,3.8,5.8,90,0.00,CLR,,0.03,WeatherDisplay:10.37,2013-02-25 11:05:00,
2013-02-25 06:10:00,32.7,30.1,29.90,NNW,338,0.5,2.3,90,0.00,CLR,,0.03,WeatherDisplay:10.37,2013-02-25 11:10:00,
2013-02-25 06:15:00,32.7,30.1,29.91,NNW,338,1.6,2.3,90,0.00,CLR,,0.03,WeatherDisplay:10.37,2013-02-25 11:15:00,
2013-02-25 06:20:00,32.9,30.3,29.91,NNW,338,1.8,3.5,90,0.00,CLR,,0.03,WeatherDisplay:10.37,2013-02-25 11:20:00,
2013-02-25 06:25:00,32.9,30.3,29.92,North,0,4.7,6.9,90,0.00,CLR,,0.03,WeatherDisplay:10.37,2013-02-25 11:25:00,
2013-02-25 06:30:00,32.9,30.3,29.92,ENE,68,3.1,5.8,90,0.00,CLR,,0.03,WeatherDisplay:10.37,2013-02-25 11:30:00,
2013-02-25 06:35:00,32.9,30.0,29.92,NW,315,0.5,4.6,89,0.00,CLR,,0.03,WeatherDisplay:10.37,2013-02-25 11:35:00,
2013-02-25 06:40:00,32.9,30.0,29.93,West,270,3.3,5.8,89,0.00,CLR,,0.03,WeatherDisplay:10.37,2013-02-25 11:40:00,
2013-02-25 06:45:00,33.1,30.2,29.93,NNW,338,1.8,4.6,89,0.00,CLR,,0.03,WeatherDisplay:10.37,2013-02-25 11:45:00,
2013-02-25 06:50:00,33.1,30.2,29.93,NNW,338,3.1,3.5,89,0.00,CLR,,0.03,WeatherDisplay:10.37,2013-02-25 11:50:00,
2013-02-25 06:55:00,33.1,30.2,29.94,North,0,4.7,4.7,89,0.00,CLR,,0.03,WeatherDisplay:10.37,2013-02-25 11:55:00,
2013-02-25 07:00:00,33.1,30.2,29.94,NNW,338,2.4,2.4,89,0.00,CLR,,0.03,WeatherDisplay:10.37,2013-02-25 12:00:00,
2013-02-25 07:05:00,32.9,30.0,29.94,NNE,22,0.7,5.8,89,0.00,CLR,,0.03,WeatherDisplay:10.37,2013-02-25 12:05:00,
2013-02-25 07:10:00,33.1,30.2,29.94,NNE,22,2.0,2.3,89,0.00,CLR,,0.03,WeatherDisplay:10.37,2013-02-25 12:10:00,
2013-02-25 07:15:00,33.1,30.2,29.94,NNW,338,0.5,3.5,89,0.00,CLR,,0.03,WeatherDisplay:10.37,2013-02-25 12:15:00,
2013-02-25 07:20:00,33.1,30.2,29.94,NNW,338,1.8,2.3,89,0.00,CLR,,0.03,WeatherDisplay:10.37,2013-02-25 12:20:00,
2013-02-25 07:25:00,33.3,30.4,29.95,NW,315,4.3,4.6,89,0.00,CLR,,0.03,WeatherDisplay:10.37,2013-02-25 12:25:00,
2013-02-25 07:30:00,33.4,30.5,29.95,NW,315,0.7,2.3,89,0.00,CLR,,0.03,WeatherDisplay:10.37,2013-02-25 12:30:00,
2013-02-25 07:35:00,33.4,30.5,29.95,NNW,338,1.6,2.3,89,0.00,CLR,,0.03,WeatherDisplay:10.37,2013-02-25 12:35:00,
2013-02-25 07:40:00,33.4,30.5,29.95,North,0,1.4,3.5,89,0.00,CLR,,0.03,WeatherDisplay:10.37,2013-02-25 12:40:00,
2013-02-25 07:45:00,33.4,30.5,29.95,ESE,112,0.2,3.5,89,0.00,CLR,,0.03,WeatherDisplay:10.37,2013-02-25 12:45:00,
2013-02-25 07:50:00,33.6,30.7,29.95,North,0,1.6,3.5,89,0.00,CLR,,0.03,WeatherDisplay:10.37,2013-02-25 12:50:00,
2013-02-25 07:55:00,33.6,30.4,29.95,WSW,248,1.1,2.3,88,0.00,CLR,,0.03,WeatherDisplay:10.37,2013-02-25 12:55:00,
2013-02-25 08:00:00,33.8,30.3,29.96,North,0,0.5,3.5,87,0.00,CLR,,0.03,WeatherDisplay:10.37,2013-02-25 13:00:00,
2013-02-25 08:05:00,33.8,30.3,29.96,North,0,3.1,3.1,87,0.00,CLR,,0.03,WeatherDisplay:10.37,2013-02-25 13:05:00,
2013-02-25 08:10:00,34.0,30.8,29.96,NW,315,4.3,4.3,88,0.00,CLR,,0.03,WeatherDisplay:10.37,2013-02-25 13:10:00,
2013-02-25 08:15:00,33.8,30.6,29.96,NW,315,3.8,3.8,88,0.00,CLR,,0.03,WeatherDisplay:10.37,2013-02-25 13:15:00,
2013-02-25 08:20:00,34.0,30.8,29.97,NNW,338,0.9,2.3,88,0.00,CLR,,0.03,WeatherDisplay:10.37,2013-02-25 13:20:00,
2013-02-25 08:26:00,34.2,31.0,29.96,West,270,0.9,3.5,88,0.00,CLR,,0.04,WeatherDisplay:10.37,2013-02-25 13:26:00,
2013-02-25 08:31:00,34.3,31.2,29.96,NW,315,2.4,2.4,88,0.01,RA,,0.04,WeatherDisplay:10.37,2013-02-25 13:31:00,
2013-02-25 08:36:00,34.5,31.0,29.96,West,270,3.1,3.1,87,0.01,,,0.04,WeatherDisplay:10.37,2013-02-25 13:36:00,
2013-02-25 08:41:00,34.7,30.7,29.96,WNW,292,3.3,3.5,85,0.01,CLR,,0.04,WeatherDisplay:10.37,2013-02-25 13:41:00,
2013-02-25 08:46:00,34.9,30.5,29.97,North,0,6.7,6.9,84,0.01,CLR,,0.04,WeatherDisplay:10.37,2013-02-25 13:46:00,
2013-02-25 08:51:00,35.2,31.2,29.97,NNE,22,1.8,2.3,85,0.01,CLR,,0.04,WeatherDisplay:10.37,2013-02-25 13:51:00,
2013-02-25 08:56:00,35.4,30.8,29.97,NW,315,4.0,5.8,83,0.01,CLR,,0.04,WeatherDisplay:10.37,2013-02-25 13:56:00,
2013-02-25 09:01:00,35.6,31.2,29.97,NW,315,1.1,4.6,84,0.01,CLR,,0.04,WeatherDisplay:10.37,2013-02-25 14:01:00,
2013-02-25 09:06:00,36.0,31.6,29.98,North,0,5.9,5.9,84,0.01,CLR,,0.04,WeatherDisplay:10.37,2013-02-25 14:06:00,
2013-02-25 09:11:00,36.1,31.2,29.98,North,0,0.5,5.8,82,0.01,CLR,,0.04,WeatherDisplay:10.37,2013-02-25 14:11:00,
2013-02-25 09:16:00,36.9,31.3,29.98,NNW,338,0.7,5.8,80,0.01,CLR,,0.04,WeatherDisplay:10.37,2013-02-25 14:16:00,
2013-02-25 09:21:00,37.4,30.8,29.98,NNE,22,0.9,2.3,77,0.01,CLR,,0.04,WeatherDisplay:10.37,2013-02-25 14:21:00,
2013-02-25 09:26:00,37.6,31.0,29.98,NW,315,3.1,5.8,77,0.02,RA,,0.05,WeatherDisplay:10.37,2013-02-25 14:26:00,
2013-02-25 09:31:00,37.8,30.9,29.98,NNW,338,3.1,4.6,76,0.02,RA,,0.06,WeatherDisplay:10.37,2013-02-25 14:31:00,
2013-02-25 09:38:00,38.1,30.6,29.99,ENE,68,4.0,9.2,74,0.04,RA,,0.08,WeatherDisplay:10.37,2013-02-25 14:38:00,
2013-02-25 09:43:00,38.3,30.7,29.99,NE,45,2.0,5.8,74,0.05,RA,,0.09,WeatherDisplay:10.37,2013-02-25 14:43:00,
2013-02-25 09:48:00,38.3,30.4,29.99,NW,315,2.0,9.2,73,0.06,RA,,0.11,WeatherDisplay:10.37,2013-02-25 14:48:00,
2013-02-25 09:53:00,38.5,31.2,29.99,NNW,338,2.4,2.4,75,0.08,RA,,0.12,WeatherDisplay:10.37,2013-02-25 14:53:00,
2013-02-25 09:58:00,38.5,30.6,30.00,NE,45,2.4,8.5,73,0.09,RA,,0.14,WeatherDisplay:10.37,2013-02-25 14:58:00,
2013-02-25 10:03:00,38.7,30.7,30.00,WNW,292,1.1,5.8,73,0.11,RA,,0.15,WeatherDisplay:10.37,2013-02-25 15:03:00,
2013-02-25 10:08:00,39.2,31.9,30.00,NW,315,4.7,4.7,75,0.12,RA,,0.16,WeatherDisplay:10.37,2013-02-25 15:08:00,
2013-02-25 10:13:00,39.4,30.8,30.00,North,0,4.0,6.9,71,0.13,RA,,0.17,WeatherDisplay:10.37,2013-02-25 15:13:00,
2013-02-25 10:19:00,39.2,30.9,30.00,NNW,338,2.2,8.1,72,0.14,RA,,0.18,WeatherDisplay:10.37,2013-02-25 15:19:00,
2013-02-25 10:24:00,39.2,30.2,30.00,WNW,292,1.6,8.1,70,0.15,RA,,0.19,WeatherDisplay:10.37,2013-02-25 15:24:00,
2013-02-25 10:29:00,39.6,31.3,30.00,WNW,292,1.4,3.5,72,0.15,RA,,0.19,WeatherDisplay:10.37,2013-02-25 15:29:00,
2013-02-25 10:34:00,39.9,30.2,30.00,NNW,338,3.6,5.8,68,0.13,RA,,0.20,WeatherDisplay:10.37,2013-02-25 15:34:00,
2013-02-25 10:39:00,40.1,30.0,30.00,ENE,68,3.3,4.7,67,0.12,RA,,0.20,WeatherDisplay:10.37,2013-02-25 15:39:00,
2013-02-25 10:44:00,40.3,30.2,30.01,ENE,68,1.1,4.6,67,0.11,RA,,0.21,WeatherDisplay:10.37,2013-02-25 15:44:00,
2013-02-25 10:49:00,40.5,30.4,30.01,NE,45,4.7,4.7,67,0.10,RA,,0.21,WeatherDisplay:10.37,2013-02-25 15:49:00,
2013-02-25 10:54:00,40.5,29.2,30.01,NW,315,2.6,9.2,64,0.10,RA,,0.22,WeatherDisplay:10.37,2013-02-25 15:54:00,
2013-02-25 10:59:00,40.6,30.5,30.01,NE,45,4.7,4.7,67,0.09,RA,,0.23,WeatherDisplay:10.37,2013-02-25 15:59:00,
2013-02-25 11:04:00,40.6,29.4,30.01,WNW,292,4.7,4.7,64,0.08,RA,,0.23,WeatherDisplay:10.37,2013-02-25 16:04:00,
2013-02-25 11:09:00,40.6,29.4,30.01,NNE,22,2.2,8.1,64,0.08,RA,,0.24,WeatherDisplay:10.37,2013-02-25 16:09:00,
2013-02-25 11:14:00,41.0,29.7,30.02,SSW,202,3.1,4.6,64,0.07,RA,,0.24,WeatherDisplay:10.37,2013-02-25 16:14:00,
2013-02-25 11:19:00,41.0,29.4,30.01,North,0,1.1,4.6,63,0.06,,,0.24,WeatherDisplay:10.37,2013-02-25 16:19:00,
2013-02-25 11:24:00,41.0,28.2,30.01,NNW,338,1.6,8.1,60,0.06,RA,,0.25,WeatherDisplay:10.37,2013-02-25 16:24:00,
2013-02-25 11:29:00,41.0,28.6,30.01,North,0,4.3,8.1,61,0.06,RA,,0.25,WeatherDisplay:10.37,2013-02-25 16:29:00,
2013-02-25 11:34:00,41.0,29.0,30.01,WNW,292,1.8,5.8,62,0.05,,,0.25,WeatherDisplay:10.37,2013-02-25 16:34:00,
2013-02-25 11:39:00,41.2,29.5,30.01,NNE,22,7.6,7.6,63,0.05,CLR,,0.25,WeatherDisplay:10.37,2013-02-25 16:39:00,
2013-02-25 11:44:00,41.4,29.3,30.01,East,90,1.4,4.6,62,0.04,CLR,,0.25,WeatherDisplay:10.37,2013-02-25 16:44:00,
2013-02-25 11:49:00,41.5,29.1,30.01,North,0,4.9,9.2,61,0.04,CLR,,0.25,WeatherDisplay:10.37,2013-02-25 16:49:00,
2013-02-25 11:54:00,41.7,29.3,30.01,North,0,3.1,8.1,61,0.03,CLR,,0.25,WeatherDisplay:10.37,2013-02-25 16:54:00,
2013-02-25 11:59:00,41.7,29.3,30.02,SSE,158,2.4,4.6,61,0.02,CLR,,0.25,WeatherDisplay:10.37,2013-02-25 16:59:00,
2013-02-25 12:04:00,41.5,28.7,30.02,North,0,2.4,6.9,60,0.02,CLR,,0.25,WeatherDisplay:10.37,2013-02-25 17:04:00,
2013-02-25 12:09:00,41.5,28.7,30.02,NNW,338,2.9,4.6,60,0.01,CLR,,0.25,WeatherDisplay:10.37,2013-02-25 17:09:00,
2013-02-25 12:14:00,41.5,28.3,30.02,NNE,22,1.8,3.5,59,0.01,CLR,,0.25,WeatherDisplay:10.37,2013-02-25 17:14:00,
2013-02-25 12:19:00,41.5,28.3,30.02,ENE,68,2.4,5.8,59,0.01,CLR,,0.25,WeatherDisplay:10.37,2013-02-25 17:19:00,
2013-02-25 12:24:00,41.5,28.7,30.02,NW,315,3.3,6.9,60,0.00,CLR,,0.25,WeatherDisplay:10.37,2013-02-25 17:24:00,
2013-02-25 12:29:00,41.7,29.3,30.02,NW,315,2.6,5.8,61,0.00,CLR,,0.25,WeatherDisplay:10.37,2013-02-25 17:29:00,
2013-02-25 12:34:00,41.7,28.8,30.03,NW,315,3.1,4.6,60,0.00,CLR,,0.25,WeatherDisplay:10.37,2013-02-25 17:34:00,
2013-02-25 12:39:00,41.7,29.3,30.03,NNE,22,1.6,6.9,61,0.00,CLR,,0.25,WeatherDisplay:10.37,2013-02-25 17:39:00,
2013-02-25 12:44:00,41.7,29.3,30.03,NNE,22,2.6,4.6,61,0.00,CLR,,0.25,WeatherDisplay:10.37,2013-02-25 17:44:00,
2013-02-25 12:49:00,41.7,28.8,30.03,NNE,22,4.5,5.8,60,0.00,CLR,,0.25,WeatherDisplay:10.37,2013-02-25 17:49:00,
2013-02-25 12:54:00,41.5,29.1,30.03,North,0,4.0,4.6,61,0.00,CLR,,0.25,WeatherDisplay:10.37,2013-02-25 17:54:00,
2013-02-25 12:59:00,42.1,30.4,30.03,North,0,1.1,4.6,63,0.00,CLR,,0.25,WeatherDisplay:10.37,2013-02-25 17:59:00,
2013-02-25 13:04:00,42.4,29.5,30.03,NNE,22,4.0,5.8,60,0.00,CLR,,0.25,WeatherDisplay:10.37,2013-02-25 18:04:00,
2013-02-25 13:09:00,42.6,29.7,30.03,North,0,4.7,5.8,60,0.00,CLR,,0.25,WeatherDisplay:10.37,2013-02-25 18:09:00,
2013-02-25 13:14:00,42.3,28.9,30.04,ENE,68,2.4,5.8,59,0.00,CLR,,0.25,WeatherDisplay:10.37,2013-02-25 18:14:00,
2013-02-25 13:19:00,41.9,29.0,30.04,ENE,68,2.0,4.6,60,0.00,CLR,,0.25,WeatherDisplay:10.37,2013-02-25 18:19:00,
2013-02-25 13:24:00,41.9,29.8,30.04,NNE,22,1.1,5.8,62,0.00,CLR,,0.25,WeatherDisplay:10.37,2013-02-25 18:24:00,
2013-02-25 13:29:00,42.1,29.2,30.04,NNE,22,2.4,2.6,60,0.00,CLR,,0.25,WeatherDisplay:10.37,2013-02-25 18:29:00,
2013-02-25 13:34:00,41.9,29.4,30.04,NNW,338,3.3,4.6,61,0.00,CLR,,0.25,WeatherDisplay:10.37,2013-02-25 18:34:00,
2013-02-25 13:39:00,41.7,29.3,30.04,NNE,22,3.6,4.6,61,0.00,CLR,,0.25,WeatherDisplay:10.37,2013-02-25 18:39:00,
2013-02-25 13:44:00,41.9,28.6,30.04,NNW,338,1.6,5.8,59,0.00,CLR,,0.25,WeatherDisplay:10.37,2013-02-25 18:44:00,
2013-02-25 13:49:00,41.7,29.3,30.05,WNW,292,1.6,6.9,61,0.00,CLR,,0.25,WeatherDisplay:10.37,2013-02-25 18:49:00,
2013-02-25 13:54:00,41.4,28.5,30.04,North,0,4.7,4.7,60,0.00,CLR,,0.25,WeatherDisplay:10.37,2013-02-25 18:54:00,
2013-02-25 13:59:00,41.4,28.5,30.04,North,0,2.6,5.8,60,0.00,CLR,,0.25,WeatherDisplay:10.37,2013-02-25 18:59:00,
2013-02-25 14:04:00,41.7,29.3,30.04,NNE,22,4.0,4.0,61,0.00,CLR,,0.25,WeatherDisplay:10.37,2013-02-25 19:04:00,
2013-02-25 14:09:00,41.9,29.0,30.04,NW,315,1.1,4.6,60,0.00,CLR,,0.25,WeatherDisplay:10.37,2013-02-25 19:09:00,
2013-02-25 14:14:00,41.7,29.3,30.04,ESE,112,1.1,4.6,61,0.00,CLR,,0.25,WeatherDisplay:10.37,2013-02-25 19:14:00,
2013-02-25 14:19:00,41.7,29.3,30.05,NW,315,2.2,2.2,61,0.00,CLR,,0.25,WeatherDisplay:10.37,2013-02-25 19:19:00,
2013-02-25 14:24:00,41.5,28.7,30.04,NW,315,1.8,3.5,60,0.00,CLR,,0.25,WeatherDisplay:10.37,2013-02-25 19:24:00,
2013-02-25 14:29:00,40.8,27.6,30.05,NE,45,4.0,5.8,59,0.00,CLR,,0.25,WeatherDisplay:10.37,2013-02-25 19:29:00,
2013-02-25 14:34:00,40.5,27.7,30.05,WNW,292,6.2,6.2,60,0.00,CLR,,0.25,WeatherDisplay:10.37,2013-02-25 19:34:00,
2013-02-25 14:39:00,40.3,27.1,30.05,NW,315,2.6,5.8,59,0.00,CLR,,0.25,WeatherDisplay:10.37,2013-02-25 19:39:00,
2013-02-25 14:44:00,39.9,27.5,30.05,North,0,4.0,4.6,61,0.00,CLR,,0.25,WeatherDisplay:10.37,2013-02-25 19:44:00,
2013-02-25 14:49:00,39.9,27.9,30.06,NNW,338,2.2,6.9,62,0.00,CLR,,0.25,WeatherDisplay:10.37,2013-02-25 19:49:00,
2013-02-25 14:54:00,39.9,28.3,30.06,NNE,22,2.4,3.5,63,0.00,CLR,,0.25,WeatherDisplay:10.37,2013-02-25 19:54:00,
2013-02-25 14:59:00,39.9,27.5,30.07,NNW,338,4.7,6.9,61,0.00,CLR,,0.25,WeatherDisplay:10.37,2013-02-25 19:59:00,
2013-02-25 15:04:00,39.6,27.2,30.07,NNE,22,4.7,4.7,61,0.00,CLR,,0.25,WeatherDisplay:10.37,2013-02-25 20:04:00,
2013-02-25 15:09:00,39.2,27.3,30.07,NNW,338,1.8,3.5,62,0.00,CLR,,0.25,WeatherDisplay:10.37,2013-02-25 20:09:00,
2013-02-25 15:14:00,39.2,27.7,30.07,NW,315,3.3,8.1,63,0.00,CLR,,0.25,WeatherDisplay:10.37,2013-02-25 20:14:00,
2013-02-25 15:19:00,39.2,26.9,30.08,NNE,22,6.2,6.2,61,0.00,CLR,,0.25,WeatherDisplay:10.37,2013-02-25 20:19:00,
2013-02-25 15:24:00,38.8,26.1,30.08,NNW,338,3.1,4.6,60,0.00,CLR,,0.25,WeatherDisplay:10.37,2013-02-25 20:24:00,
2013-02-25 15:29:00,38.8,26.5,30.08,NNW,338,1.8,1.8,61,0.00,CLR,,0.25,WeatherDisplay:10.37,2013-02-25 20:29:00,
2013-02-25 15:34:00,38.7,26.8,30.08,NNE,22,7.1,7.1,62,0.00,CLR,,0.25,WeatherDisplay:10.37,2013-02-25 20:34:00,
2013-02-25 15:39:00,38.5,26.6,30.08,North,0,1.8,3.5,62,0.00,CLR,,0.25,WeatherDisplay:10.37,2013-02-25 20:39:00,
2013-02-25 15:44:00,38.5,26.6,30.08,WNW,292,2.4,6.9,62,0.00,CLR,,0.25,WeatherDisplay:10.37,2013-02-25 20:44:00,
2013-02-25 15:49:00,38.5,27.0,30.09,ENE,68,1.8,2.3,63,0.00,CLR,,0.25,WeatherDisplay:10.37,2013-02-25 20:49:00,
2013-02-25 15:54:00,38.8,27.3,30.09,East,90,0.9,2.3,63,0.00,CLR,,0.25,WeatherDisplay:10.37,2013-02-25 20:54:00,
2013-02-25 15:59:00,38.5,27.0,30.08,WSW,248,5.4,5.4,63,0.00,CLR,,0.25,WeatherDisplay:10.37,2013-02-25 20:59:00,
2013-02-25 16:04:00,38.5,27.0,30.08,East,90,2.6,3.5,63,0.00,CLR,,0.25,WeatherDisplay:10.37,2013-02-25 21:04:00,
2013-02-25 16:09:00,38.5,27.0,30.08,NE,45,4.7,4.7,63,0.00,CLR,,0.25,WeatherDisplay:10.37,2013-02-25 21:09:00,
2013-02-25 16:14:00,38.1,26.6,30.08,North,0,4.0,4.0,63,0.00,CLR,,0.25,WeatherDisplay:10.37,2013-02-25 21:14:00,
2013-02-25 16:19:00,37.6,26.5,30.09,West,270,2.2,3.5,64,0.00,CLR,,0.25,WeatherDisplay:10.37,2013-02-25 21:19:00,
2013-02-25 16:24:00,37.4,26.7,30.10,East,90,0.7,3.5,65,0.00,CLR,,0.25,WeatherDisplay:10.37,2013-02-25 21:24:00,
2013-02-25 16:29:00,37.2,26.5,30.10,NNE,22,2.6,6.9,65,0.00,CLR,,0.25,WeatherDisplay:10.37,2013-02-25 21:29:00,
2013-02-25 16:34:00,37.0,26.7,30.10,ENE,68,2.4,3.5,66,0.00,CLR,,0.25,WeatherDisplay:10.37,2013-02-25 21:34:00,
2013-02-25 16:39:00,36.9,26.9,30.10,NE,45,1.8,4.0,67,0.00,CLR,,0.25,WeatherDisplay:10.37,2013-02-25 21:39:00,
2013-02-25 16:44:00,36.7,26.7,30.11,NE,45,0.5,0.5,67,0.00,CLR,,0.25,WeatherDisplay:10.37,2013-02-25 21:44:00,
2013-02-25 16:49:00,36.5,26.9,30.11,North,0,2.6,4.6,68,0.00,CLR,,0.25,WeatherDisplay:10.37,2013-02-25 21:49:00,
2013-02-25 16:54:00,36.3,26.4,30.11,ENE,68,2.4,3.5,67,0.00,CLR,,0.25,WeatherDisplay:10.37,2013-02-25 21:54:00,
2013-02-25 16:59:00,36.3,26.8,30.11,WNW,292,0.5,1.1,68,0.00,CLR,,0.25,WeatherDisplay:10.37,2013-02-25 21:59:00,
2013-02-25 17:04:00,36.0,26.8,30.11,NE,45,1.8,2.3,69,0.00,CLR,,0.25,WeatherDisplay:10.37,2013-02-25 22:04:00,
2013-02-25 17:09:00,35.8,26.9,30.11,WNW,292,0.5,4.6,70,0.00,CLR,,0.25,WeatherDisplay:10.37,2013-02-25 22:09:00,
2013-02-25 17:14:00,35.6,27.1,30.11,WNW,292,1.4,1.4,71,0.00,CLR,,0.25,WeatherDisplay:10.37,2013-02-25 22:14:00,
2013-02-25 17:19:00,35.6,27.1,30.11,NE,45,1.1,1.1,71,0.00,CLR,,0.25,WeatherDisplay:10.37,2013-02-25 22:19:00,
2013-02-25 17:24:00,35.2,26.8,30.11,NW,315,0.5,2.3,71,0.00,CLR,,0.25,WeatherDisplay:10.37,2013-02-25 22:24:00,
2013-02-25 17:29:00,35.1,26.9,30.11,NNE,22,0.9,2.3,72,0.00,CLR,,0.25,WeatherDisplay:10.37,2013-02-25 22:29:00,
2013-02-25 17:34:00,34.9,26.8,30.11,North,0,0.0,1.1,72,0.00,CLR,,0.25,WeatherDisplay:10.37,2013-02-25 22:34:00,
2013-02-25 17:39:00,34.5,26.4,30.12,NE,45,0.2,0.2,72,0.00,CLR,,0.25,WeatherDisplay:10.37,2013-02-25 22:39:00,
2013-02-25 17:44:00,34.2,26.1,30.12,NNE,22,0.2,0.2,72,0.00,CLR,,0.25,WeatherDisplay:10.37,2013-02-25 22:44:00,
2013-02-25 17:49:00,34.0,25.9,30.13,North,0,0.0,0.0,72,0.00,CLR,,0.25,WeatherDisplay:10.37,2013-02-25 22:49:00,
2013-02-25 17:54:00,33.8,25.7,30.12,NNW,338,0.0,0.0,72,0.00,CLR,,0.25,WeatherDisplay:10.37,2013-02-25 22:54:00,
2013-02-25 17:59:00,33.4,25.4,30.12,NNW,338,0.0,0.0,72,0.00,CLR,,0.25,WeatherDisplay:10.37,2013-02-25 22:59:00,
2013-02-25 18:04:00,33.3,25.5,30.12,NNW,338,0.0,0.0,73,0.00,CLR,,0.25,WeatherDisplay:10.37,2013-02-25 23:04:00,
2013-02-25 18:09:00,33.1,25.4,30.12,NNW,338,0.0,0.0,73,0.00,CLR,,0.25,WeatherDisplay:10.37,2013-02-25 23:09:00,
2013-02-25 18:14:00,32.7,25.0,30.12,NNW,338,0.0,0.0,73,0.00,CLR,,0.25,WeatherDisplay:10.37,2013-02-25 23:14:00,
2013-02-25 18:19:00,32.4,24.7,30.12,NNW,338,0.0,0.0,73,0.00,CLR,,0.25,WeatherDisplay:10.37,2013-02-25 23:19:00,
2013-02-25 18:24:00,32.2,24.8,30.12,NNW,338,0.0,0.0,74,0.00,CLR,,0.25,WeatherDisplay:10.37,2013-02-25 23:24:00,
2013-02-25 18:29:00,32.0,24.6,30.12,NNW,338,0.0,0.0,74,0.00,CLR,,0.25,WeatherDisplay:10.37,2013-02-25 23:29:00,
2013-02-25 18:34:00,31.6,24.3,30.12,NNW,338,0.0,0.0,74,0.00,CLR,,0.25,WeatherDisplay:10.37,2013-02-25 23:34:00,
2013-02-25 18:39:00,31.5,24.4,30.12,NNW,338,0.0,0.0,75,0.00,CLR,,0.25,WeatherDisplay:10.37,2013-02-25 23:39:00,
2013-02-25 18:44:00,31.3,24.6,30.12,NNW,338,0.0,0.0,76,0.00,CLR,,0.25,WeatherDisplay:10.37,2013-02-25 23:44:00,
2013-02-25 18:49:00,30.9,24.2,30.12,NNW,338,0.0,0.0,76,0.00,CLR,,0.25,WeatherDisplay:10.37,2013-02-25 23:49:00,
2013-02-25 18:54:00,30.7,24.1,30.13,NNW,338,0.0,0.0,76,0.00,CLR,,0.25,WeatherDisplay:10.37,2013-02-25 23:54:00,
2013-02-25 18:59:00,30.6,23.9,30.13,NNW,338,0.0,0.0,76,0.00,CLR,,0.25,WeatherDisplay:10.37,2013-02-25 23:59:00,
2013-02-25 19:04:00,30.4,24.0,30.13,NNW,338,0.0,0.0,77,0.00,CLR,,0.25,WeatherDisplay:10.37,2013-02-26 00:04:00,
2013-02-25 19:09:00,30.2,23.9,30.13,NNW,338,0.0,0.0,77,0.00,CLR,,0.25,WeatherDisplay:10.37,2013-02-26 00:09:00,
2013-02-25 19:14:00,30.0,23.7,30.13,NNW,338,0.0,0.0,77,0.00,CLR,,0.25,WeatherDisplay:10.37,2013-02-26 00:14:00,
2013-02-25 19:19:00,29.8,23.5,30.13,NNW,338,0.0,0.0,77,0.00,CLR,,0.25,WeatherDisplay:10.37,2013-02-26 00:19:00,
2013-02-25 19:24:00,29.7,23.3,30.14,NNW,338,0.0,0.0,77,0.00,CLR,,0.25,WeatherDisplay:10.37,2013-02-26 00:24:00,
2013-02-25 19:29:00,29.5,23.2,30.14,NNW,338,0.0,0.0,77,0.00,CLR,,0.25,WeatherDisplay:10.37,2013-02-26 00:29:00,
2013-02-25 19:34:00,29.5,23.5,30.14,NNW,338,0.0,0.0,78,0.00,CLR,,0.25,WeatherDisplay:10.37,2013-02-26 00:34:00,
2013-02-25 19:39:00,29.5,23.5,30.15,NNW,338,0.0,0.0,78,0.00,CLR,,0.25,WeatherDisplay:10.37,2013-02-26 00:39:00,
2013-02-25 19:44:00,29.3,23.3,30.15,NNW,338,0.0,0.0,78,0.00,CLR,,0.25,WeatherDisplay:10.37,2013-02-26 00:44:00,
2013-02-25 19:49:00,29.3,23.6,30.16,NW,315,0.0,0.0,79,0.00,CLR,,0.25,WeatherDisplay:10.37,2013-02-26 00:49:00,
2013-02-25 19:54:00,29.1,23.4,30.16,NW,315,0.0,0.0,79,0.00,CLR,,0.25,WeatherDisplay:10.37,2013-02-26 00:54:00,
2013-02-25 19:59:00,29.1,23.4,30.16,NW,315,0.0,0.0,79,0.00,CLR,,0.25,WeatherDisplay:10.37,2013-02-26 00:59:00,
2013-02-25 20:04:00,28.9,23.2,30.16,NW,315,0.0,0.0,79,0.00,CLR,,0.25,WeatherDisplay:10.37,2013-02-26 01:04:00,
2013-02-25 20:09:00,28.9,23.2,30.16,NW,315,0.0,0.0,79,0.00,CLR,,0.25,WeatherDisplay:10.37,2013-02-26 01:09:00,
2013-02-25 20:14:00,28.8,23.4,30.17,NW,315,0.0,0.0,80,0.00,CLR,,0.25,WeatherDisplay:10.37,2013-02-26 01:14:00,
2013-02-25 20:19:00,28.8,23.4,30.17,NW,315,0.0,0.0,80,0.00,CLR,,0.25,WeatherDisplay:10.37,2013-02-26 01:19:00,
2013-02-25 20:24:00,28.8,23.4,30.18,NW,315,0.0,0.0,80,0.00,CLR,,0.25,WeatherDisplay:10.37,2013-02-26 01:24:00,
2013-02-25 20:29:00,28.6,23.2,30.17,NW,315,0.0,0.0,80,0.00,CLR,,0.25,WeatherDisplay:10.37,2013-02-26 01:29:00,
2013-02-25 20:34:00,28.4,23.0,30.17,NW,315,0.0,0.0,80,0.00,CLR,,0.25,WeatherDisplay:10.37,2013-02-26 01:34:00,
2013-02-25 20:39:00,28.4,23.3,30.17,NW,315,0.0,0.0,81,0.00,CLR,,0.25,WeatherDisplay:10.37,2013-02-26 01:39:00,
2013-02-25 20:44:00,28.4,23.3,30.17,NW,315,0.0,0.0,81,0.00,CLR,,0.25,WeatherDisplay:10.37,2013-02-26 01:44:00,
2013-02-25 20:49:00,28.2,23.1,30.17,NW,315,0.0,0.0,81,0.00,CLR,,0.25,WeatherDisplay:10.37,2013-02-26 01:49:00,
2013-02-25 20:54:00,28.0,23.0,30.17,NW,315,0.0,0.0,81,0.00,CLR,,0.25,WeatherDisplay:10.37,2013-02-26 01:54:00,
2013-02-25 20:59:00,28.0,23.0,30.17,NW,315,0.0,0.0,81,0.00,CLR,,0.25,WeatherDisplay:10.37,2013-02-26 01:59:00,
2013-02-25 21:04:00,27.9,22.8,30.17,NW,315,0.0,0.0,81,0.00,CLR,,0.25,WeatherDisplay:10.37,2013-02-26 02:04:00,
2013-02-25 21:09:00,27.9,22.8,30.17,NW,315,0.0,0.0,81,0.00,CLR,,0.25,WeatherDisplay:10.37,2013-02-26 02:09:00,
2013-02-25 21:14:00,27.7,22.6,30.17,NW,315,0.0,0.0,81,0.00,CLR,,0.25,WeatherDisplay:10.37,2013-02-26 02:14:00,
2013-02-25 21:19:00,27.7,22.6,30.17,NW,315,0.0,0.0,81,0.00,CLR,,0.25,WeatherDisplay:10.37,2013-02-26 02:19:00,
2013-02-25 21:24:00,27.7,22.9,30.17,NW,315,0.0,0.0,82,0.00,CLR,,0.25,WeatherDisplay:10.37,2013-02-26 02:24:00,
2013-02-25 21:29:00,27.5,22.7,30.17,NW,315,0.0,0.0,82,0.00,CLR,,0.25,WeatherDisplay:10.37,2013-02-26 02:29:00,
2013-02-25 21:34:00,27.3,22.5,30.17,NW,315,0.0,0.0,82,0.00,CLR,,0.25,WeatherDisplay:10.37,2013-02-26 02:34:00,
2013-02-25 21:39:00,27.3,22.5,30.17,NW,315,0.0,0.0,82,0.00,CLR,,0.25,WeatherDisplay:10.37,2013-02-26 02:39:00,
2013-02-25 21:44:00,27.3,22.5,30.17,NW,315,0.0,0.0,82,0.00,CLR,,0.25,WeatherDisplay:10.37,2013-02-26 02:44:00,
2013-02-25 21:49:00,27.1,22.7,30.16,NW,315,0.0,0.0,83,0.00,CLR,,0.25,WeatherDisplay:10.37,2013-02-26 02:49:00,
2013-02-25 21:54:00,27.1,22.7,30.16,NW,315,0.0,0.0,83,0.00,CLR,,0.25,WeatherDisplay:10.37,2013-02-26 02:54:00,
2013-02-25 21:59:00,27.0,22.5,30.17,NW,315,0.0,0.0,83,0.00,CLR,,0.25,WeatherDisplay:10.37,2013-02-26 02:59:00,
2013-02-25 22:04:00,27.0,22.5,30.16,NW,315,0.0,0.0,83,0.00,CLR,,0.25,WeatherDisplay:10.37,2013-02-26 03:04:00,
2013-02-25 22:09:00,27.0,22.5,30.17,NW,315,0.0,0.0,83,0.00,CLR,,0.25,WeatherDisplay:10.37,2013-02-26 03:09:00,
2013-02-25 22:14:00,27.0,22.5,30.17,NW,315,0.0,0.0,83,0.00,CLR,,0.25,WeatherDisplay:10.37,2013-02-26 03:14:00,
2013-02-25 22:19:00,26.8,22.3,30.17,NW,315,0.0,0.0,83,0.00,CLR,,0.25,WeatherDisplay:10.37,2013-02-26 03:19:00,
2013-02-25 22:24:00,26.6,22.1,30.17,NW,315,0.0,0.0,83,0.00,CLR,,0.25,WeatherDisplay:10.37,2013-02-26 03:24:00,
2013-02-25 22:29:00,26.6,22.1,30.17,NW,315,0.0,0.0,83,0.00,CLR,,0.25,WeatherDisplay:10.37,2013-02-26 03:29:00,
2013-02-25 22:34:00,26.4,22.0,30.16,NW,315,0.0,0.0,83,0.00,CLR,,0.25,WeatherDisplay:10.37,2013-02-26 03:34:00,
2013-02-25 22:39:00,26.2,21.8,30.16,NW,315,0.0,0.0,83,0.00,CLR,,0.25,WeatherDisplay:10.37,2013-02-26 03:39:00,
2013-02-25 22:44:00,26.2,22.1,30.17,NW,315,0.0,0.0,84,0.00,CLR,,0.25,WeatherDisplay:10.37,2013-02-26 03:44:00,
2013-02-25 22:49:00,26.2,21.8,30.17,NW,315,0.0,0.0,83,0.00,CLR,,0.25,WeatherDisplay:10.37,2013-02-26 03:49:00,
2013-02-25 22:54:00,26.2,21.8,30.17,NW,315,0.0,0.0,83,0.00,CLR,,0.25,WeatherDisplay:10.37,2013-02-26 03:54:00,
2013-02-25 22:59:00,26.2,21.8,30.18,NW,315,0.0,0.0,83,0.00,CLR,,0.25,WeatherDisplay:10.37,2013-02-26 03:59:00,
2013-02-25 23:04:00,26.1,21.6,30.18,NW,315,0.0,0.0,83,0.00,CLR,,0.25,WeatherDisplay:10.37,2013-02-26 04:04:00,
2013-02-25 23:09:00,25.9,21.4,30.18,NW,315,0.0,0.0,83,0.00,CLR,,0.25,WeatherDisplay:10.37,2013-02-26 04:09:00,
2013-02-25 23:14:00,25.9,21.4,30.18,NW,315,0.0,0.0,83,0.00,CLR,,0.25,WeatherDisplay:10.37,2013-02-26 04:14:00,
2013-02-25 23:19:00,25.9,21.4,30.18,NW,315,0.0,0.0,83,0.00,CLR,,0.25,WeatherDisplay:10.37,2013-02-26 04:19:00,
2013-02-25 23:24:00,25.9,21.4,30.18,NW,315,0.0,0.0,83,0.00,CLR,,0.25,WeatherDisplay:10.37,2013-02-26 04:24:00,
2013-02-25 23:29:00,25.9,21.7,30.18,NW,315,0.0,0.0,84,0.00,CLR,,0.25,WeatherDisplay:10.37,2013-02-26 04:29:00,
2013-02-25 23:34:00,25.9,21.7,30.18,NW,315,0.0,0.0,84,0.00,CLR,,0.25,WeatherDisplay:10.37,2013-02-26 04:34:00,
2013-02-25 23:39:00,25.9,21.7,30.18,NW,315,0.0,0.0,84,0.00,CLR,,0.25,WeatherDisplay:10.37,2013-02-26 04:39:00,
2013-02-25 23:44:00,25.7,21.5,30.18,NW,315,0.0,0.0,84,0.00,CLR,,0.25,WeatherDisplay:10.37,2013-02-26 04:44:00,
2013-02-25 23:49:00,25.7,21.5,30.19,NW,315,0.0,0.0,84,0.00,CLR,,0.25,WeatherDisplay:10.37,2013-02-26 04:49:00,
2013-02-25 23:54:00,25.7,21.5,30.19,NW,315,0.0,0.0,84,0.00,CLR,,0.25,WeatherDisplay:10.37,2013-02-26 04:54:00,
2013-02-25 23:59:00,25.5,21.4,30.18,NW,315,0.0,0.0,84,0.00,CLR,,0.25,WeatherDisplay:10.37,2013-02-26 04:59:00,